Regional Weather Roundup
Issued by NWS

Home | Current Version | Previous Version | Text Only | Print | Product List | Glossary On
Versions: 1 2 3 4 5 6 7 8 9 10 11 12 13 14 15 16 17 18 19 20 21 22 23 24 25 26 27 28 29 30 31 32 33 34 35 36 37 38 39 40 41 42 43 44 45 46 47 48 49 50
000
ASUS43 KOAX 250802
RWRNE

WEATHER ROUNDUP FOR NEBRASKA
NATIONAL WEATHER SERVICE OMAHA NE
300 AM CDT MON MAY 25 2015

NOTES: SATELLITE DATA IS BEING USED TO AUGMENT CLOUD COVER ABOVE
       12000 FEET.
       "FAIR" INDICATES FEW OR NO CLOUDS BELOW 12,000 FEET WITH NO
       SIGNIFICANT WEATHER AND/OR OBSTRUCTIONS TO VISIBILITY.

  * THESE STATIONS DO NOT REPORT WEATHER SUCH AS RAIN...SNOW OR FOG.

NEZ001>004-019>022-054>056-250900-
NEBRASKA PANHANDLE

CITY           SKY/WX    TMP DP  RH WIND       PRES   REMARKS
SCOTTSBLUFF    LGT RAIN  51  50  96 SW3       29.82F
ALLIANCE       LGT RAIN  50  50 100 W7        29.78F
CHADRON        CLOUDY    51  49  92 SW3       29.81F
SIDNEY         CLOUDY    49  48  97 W3        29.81F
$$

NEZ057>060-069>072-079>082-250900-
SOUTHWEST NEBRASKA

CITY           SKY/WX    TMP DP  RH WIND       PRES   REMARKS
NORTH PLATTE   CLOUDY    53  51  93 SW7       29.78S
IMPERIAL       CLOUDY    51  49  92 CALM      29.78F
MCCOOK         LGT RAIN  54  52  93 W8        29.78R
$$

NEZ005>010-023>029-035>040-094-250900-
NORTH CENTRAL NEBRASKA

CITY           SKY/WX    TMP DP  RH WIND       PRES   REMARKS
VALENTINE      CLOUDY    58  56  93 E3        29.78F
BROKEN BOW     MOCLDY    53  51  93 E3        29.75F
ORD            CLOUDY    57  56  96 CALM      29.74F
$$

NEZ041-046>049-061>064-073>077-083>087-250900-
SOUTH CENTRAL NEBRASKA

CITY           SKY/WX    TMP DP  RH WIND       PRES   REMARKS
GRAND ISLAND   CLOUDY    61  59  93 SW9       29.78S
HASTINGS       MOCLDY    61  57  87 SW6       29.75F
KEARNEY *      CLOUDY    55  52  88 NW6       29.75F
$$

NEZ011>018-030>034-042>045-250900-
NORTHEAST NEBRASKA

CITY           SKY/WX    TMP DP  RH WIND       PRES   REMARKS
NORFOLK        FOG       57  57 100 CALM      29.75F VSB 1/4
COLUMBUS *     MOCLDY    59  54  82 CALM      29.79F
TEKAMAH        CLOUDY    63  61  93 SW5       29.75S
$$

NEZ050>053-065>068-078-088>093-250900-
SOUTHEAST NEBRASKA

CITY           SKY/WX    TMP DP  RH WIND       PRES   REMARKS
LINCOLN        CLOUDY    61  60  97 CALM      29.78F
OMAHA EPPLEY   CLOUDY    63  60  90 S6        29.76F
FALLS CITY     LGT RAIN  62  60  93 SW8       29.79F
$$

NEZ044-045-051>053-067-250900-
OMAHA AREA

CITY           SKY/WX    TMP DP  RH WIND       PRES   REMARKS
OMAHA EPPLEY   CLOUDY    63  60  90 S6        29.76F
OFFUTT AFB     CLOUDY    62  60  96 S3        29.77S
$$


USA.gov is the U.S. government's official web portal to all federal, state and local government web resources and services.